Year,Month,Day,Hour,Minute,Value (Times are PST for temperature in C)
2013,06,29,00,00,18.10
2013,06,29,00,01,18.10
2013,06,29,00,02,18.10
2013,06,29,00,03,18.10
2013,06,29,00,04,18.10
2013,06,29,00,05,18.10
2013,06,29,00,06,18.10
2013,06,29,00,07,18.10
2013,06,29,00,08,18.10
2013,06,29,00,09,18.10
2013,06,29,00,10,18.00
2013,06,29,00,11,18.00
2013,06,29,00,12,18.00
2013,06,29,00,13,18.00
2013,06,29,00,14,18.00
2013,06,29,00,15,18.00
2013,06,29,00,16,18.00
2013,06,29,00,17,18.00
2013,06,29,00,18,18.00
2013,06,29,00,19,18.00
2013,06,29,00,20,18.00
2013,06,29,00,21,17.90
2013,06,29,00,22,17.90
2013,06,29,00,23,17.90
2013,06,29,00,24,17.90
2013,06,29,00,25,17.90
2013,06,29,00,26,17.90
2013,06,29,00,27,17.90
2013,06,29,00,28,17.90
2013,06,29,00,29,17.90
2013,06,29,00,30,17.90
2013,06,29,00,31,17.90
2013,06,29,00,32,17.90
2013,06,29,00,33,17.90
2013,06,29,00,34,17.90
2013,06,29,00,35,17.90
2013,06,29,00,36,17.90
2013,06,29,00,37,17.90
2013,06,29,00,38,17.80
2013,06,29,00,39,17.80
2013,06,29,00,40,17.80
2013,06,29,00,41,17.80
2013,06,29,00,42,17.80
2013,06,29,00,43,17.80
2013,06,29,00,44,17.80
2013,06,29,00,45,17.80
2013,06,29,00,46,17.80
2013,06,29,00,47,17.80
2013,06,29,00,48,17.70
2013,06,29,00,49,17.70
2013,06,29,00,50,17.70
2013,06,29,00,51,17.70
2013,06,29,00,52,17.70
2013,06,29,00,53,17.70
2013,06,29,00,54,17.70
2013,06,29,00,55,17.70
2013,06,29,00,56,17.70
2013,06,29,00,57,17.60
2013,06,29,00,58,17.60
2013,06,29,00,59,17.60
2013,06,29,01,00,17.60
2013,06,29,01,01,17.60
2013,06,29,01,02,17.60
2013,06,29,01,03,17.60
2013,06,29,01,04,17.60
2013,06,29,01,05,17.60
2013,06,29,01,06,17.60
2013,06,29,01,07,17.60
2013,06,29,01,08,17.60
2013,06,29,01,09,17.60
2013,06,29,01,10,17.60
2013,06,29,01,11,17.60
2013,06,29,01,12,17.60
2013,06,29,01,13,17.60
2013,06,29,01,14,17.60
2013,06,29,01,15,17.60
2013,06,29,01,16,17.60
2013,06,29,01,17,17.60
2013,06,29,01,18,17.60
2013,06,29,01,19,17.60
2013,06,29,01,20,17.60
2013,06,29,01,21,17.60
2013,06,29,01,22,17.60
2013,06,29,01,23,17.60
2013,06,29,01,24,17.60
2013,06,29,01,25,17.60
2013,06,29,01,26,17.70
2013,06,29,01,27,17.70
2013,06,29,01,28,17.70
2013,06,29,01,29,17.70
2013,06,29,01,30,17.70
2013,06,29,01,31,17.70
2013,06,29,01,32,17.70
2013,06,29,01,33,17.80
2013,06,29,01,34,17.80
2013,06,29,01,35,17.80
2013,06,29,01,36,17.80
2013,06,29,01,37,17.80
2013,06,29,01,38,17.80
2013,06,29,01,39,17.80
2013,06,29,01,40,17.80
2013,06,29,01,41,17.80
2013,06,29,01,42,17.80
2013,06,29,01,43,17.80
2013,06,29,01,44,17.80
2013,06,29,01,45,17.80
2013,06,29,01,46,17.80
2013,06,29,01,47,17.80
2013,06,29,01,48,17.80
2013,06,29,01,49,17.80
2013,06,29,01,50,17.80
2013,06,29,01,51,17.80
2013,06,29,01,52,17.70
2013,06,29,01,53,17.70
2013,06,29,01,54,17.70
2013,06,29,01,55,17.70
2013,06,29,01,56,17.70
2013,06,29,01,57,17.70
2013,06,29,01,58,17.70
2013,06,29,01,59,17.70
2013,06,29,02,00,17.70
2013,06,29,02,01,17.70
2013,06,29,02,02,17.70
2013,06,29,02,03,17.60
2013,06,29,02,04,17.60
2013,06,29,02,05,17.60
2013,06,29,02,06,17.60
2013,06,29,02,07,17.60
2013,06,29,02,08,17.60
2013,06,29,02,09,17.60
2013,06,29,02,10,17.60
2013,06,29,02,11,17.60
2013,06,29,02,12,17.60
2013,06,29,02,13,17.60
2013,06,29,02,14,17.60
2013,06,29,02,15,17.60
2013,06,29,02,16,17.60
2013,06,29,02,17,17.60
2013,06,29,02,18,17.50
2013,06,29,02,19,17.50
2013,06,29,02,20,17.50
2013,06,29,02,21,17.50
2013,06,29,02,22,17.50
2013,06,29,02,23,17.40
2013,06,29,02,24,17.40
2013,06,29,02,25,17.40
2013,06,29,02,26,17.40
2013,06,29,02,27,17.40
2013,06,29,02,28,17.40
2013,06,29,02,29,17.40
2013,06,29,02,30,17.30
2013,06,29,02,31,17.30
2013,06,29,02,32,17.30
2013,06,29,02,33,17.30
2013,06,29,02,34,17.30
2013,06,29,02,35,17.30
2013,06,29,02,36,17.20
2013,06,29,02,37,17.20
2013,06,29,02,38,17.20
2013,06,29,02,39,17.20
2013,06,29,02,40,17.20
2013,06,29,02,41,17.20
2013,06,29,02,42,17.20
2013,06,29,02,43,17.20
2013,06,29,02,44,17.20
2013,06,29,02,45,17.10
2013,06,29,02,46,17.10
2013,06,29,02,47,17.10
2013,06,29,02,48,17.10
2013,06,29,02,49,17.10
2013,06,29,02,50,17.10
2013,06,29,02,51,17.10
2013,06,29,02,52,17.10
2013,06,29,02,53,17.10
2013,06,29,02,54,17.10
2013,06,29,02,55,17.10
2013,06,29,02,56,17.10
2013,06,29,02,57,17.10
2013,06,29,02,58,17.00
2013,06,29,02,59,17.00
2013,06,29,03,00,17.00
2013,06,29,03,01,17.00
2013,06,29,03,02,17.00
2013,06,29,03,03,17.00
2013,06,29,03,04,17.00
2013,06,29,03,05,17.00
2013,06,29,03,06,17.00
2013,06,29,03,07,17.00
2013,06,29,03,08,17.00
2013,06,29,03,09,17.00
2013,06,29,03,10,17.00
2013,06,29,03,11,17.10
2013,06,29,03,12,17.10
2013,06,29,03,13,17.10
2013,06,29,03,14,17.10
2013,06,29,03,15,17.10
2013,06,29,03,16,17.10
2013,06,29,03,17,17.10
2013,06,29,03,18,17.10
2013,06,29,03,19,17.10
2013,06,29,03,20,17.10
2013,06,29,03,21,17.10
2013,06,29,03,22,17.10
2013,06,29,03,23,17.10
2013,06,29,03,24,17.10
2013,06,29,03,25,17.10
2013,06,29,03,26,17.10
2013,06,29,03,27,17.10
2013,06,29,03,28,17.10
2013,06,29,03,29,17.10
2013,06,29,03,30,17.10
2013,06,29,03,31,17.10
2013,06,29,03,32,17.10
2013,06,29,03,33,17.10
2013,06,29,03,34,17.10
2013,06,29,03,35,17.20
2013,06,29,03,36,17.20
2013,06,29,03,37,17.20
2013,06,29,03,38,17.20
2013,06,29,03,39,17.30
2013,06,29,03,40,17.30
2013,06,29,03,41,17.30
2013,06,29,03,42,17.30
2013,06,29,03,43,17.30
2013,06,29,03,44,17.30
2013,06,29,03,45,17.30
2013,06,29,03,46,17.40
2013,06,29,03,47,17.30
2013,06,29,03,48,17.30
2013,06,29,03,49,17.30
2013,06,29,03,50,17.30
2013,06,29,03,51,17.40
2013,06,29,03,52,17.30
2013,06,29,03,53,17.40
2013,06,29,03,54,17.30
2013,06,29,03,55,17.30
2013,06,29,03,56,17.30
2013,06,29,03,57,17.30
2013,06,29,03,58,17.30
2013,06,29,03,59,17.30
2013,06,29,04,00,17.30
2013,06,29,04,01,17.30
2013,06,29,04,02,17.30
2013,06,29,04,03,17.30
2013,06,29,04,04,17.30
2013,06,29,04,05,17.30
2013,06,29,04,06,17.30
2013,06,29,04,07,17.30
2013,06,29,04,08,17.30
2013,06,29,04,09,17.30
2013,06,29,04,10,17.30
2013,06,29,04,11,17.30
2013,06,29,04,12,17.30
2013,06,29,04,13,17.30
2013,06,29,04,14,17.30
2013,06,29,04,15,17.20
2013,06,29,04,16,17.20
2013,06,29,04,17,17.20
2013,06,29,04,18,17.20
2013,06,29,04,19,17.20
2013,06,29,04,20,17.20
2013,06,29,04,21,17.20
2013,06,29,04,22,17.20
2013,06,29,04,23,17.20
2013,06,29,04,24,17.20
2013,06,29,04,25,17.20
2013,06,29,04,26,17.10
2013,06,29,04,27,17.10
2013,06,29,04,28,17.10
2013,06,29,04,29,17.10
2013,06,29,04,30,17.10
2013,06,29,04,31,17.00
2013,06,29,04,32,17.00
2013,06,29,04,33,17.00
2013,06,29,04,34,17.00
2013,06,29,04,35,16.90
2013,06,29,04,36,16.90
2013,06,29,04,37,16.90
2013,06,29,04,38,16.90
2013,06,29,04,39,16.90
2013,06,29,04,40,16.80
2013,06,29,04,41,16.80
2013,06,29,04,42,16.80
2013,06,29,04,43,16.80
2013,06,29,04,44,16.80
2013,06,29,04,45,16.80
2013,06,29,04,46,16.80
2013,06,29,04,47,16.80
2013,06,29,04,48,16.80
2013,06,29,04,49,16.70
2013,06,29,04,50,16.70
2013,06,29,04,51,16.70
2013,06,29,04,52,16.70
2013,06,29,04,53,16.70
2013,06,29,04,54,16.70
2013,06,29,04,55,16.70
2013,06,29,04,56,16.70
2013,06,29,04,57,16.70
2013,06,29,04,58,16.70
2013,06,29,04,59,16.70
2013,06,29,05,00,16.70
2013,06,29,05,01,16.80
2013,06,29,05,02,16.80
2013,06,29,05,03,16.80
2013,06,29,05,04,16.80
2013,06,29,05,05,16.80
2013,06,29,05,06,16.80
2013,06,29,05,07,16.80
2013,06,29,05,08,16.80
2013,06,29,05,09,16.80
2013,06,29,05,10,16.80
2013,06,29,05,11,16.70
2013,06,29,05,12,16.70
2013,06,29,05,13,16.70
2013,06,29,05,14,16.70
2013,06,29,05,15,16.70
2013,06,29,05,16,16.70
2013,06,29,05,17,16.70
2013,06,29,05,18,16.70
2013,06,29,05,19,16.60
2013,06,29,05,20,16.60
2013,06,29,05,21,16.60
2013,06,29,05,22,16.60
2013,06,29,05,23,16.60
2013,06,29,05,24,16.60
2013,06,29,05,25,16.60
2013,06,29,05,26,16.60
2013,06,29,05,27,16.50
2013,06,29,05,28,16.50
2013,06,29,05,29,16.50
2013,06,29,05,30,16.40
2013,06,29,05,31,16.40
2013,06,29,05,32,16.40
2013,06,29,05,33,16.40
2013,06,29,05,34,16.40
2013,06,29,05,35,16.40
2013,06,29,05,36,16.40
2013,06,29,05,37,16.40
2013,06,29,05,38,16.40
2013,06,29,05,39,16.40
2013,06,29,05,40,16.40
2013,06,29,05,41,16.30
2013,06,29,05,42,16.30
2013,06,29,05,43,16.30
2013,06,29,05,44,16.30
2013,06,29,05,45,16.30
2013,06,29,05,46,16.30
2013,06,29,05,47,16.30
2013,06,29,05,48,16.30
2013,06,29,05,49,16.30
2013,06,29,05,50,16.30
2013,06,29,05,51,16.30
2013,06,29,05,52,16.30
2013,06,29,05,53,16.20
2013,06,29,05,54,16.20
2013,06,29,05,55,16.20
2013,06,29,05,56,16.20
2013,06,29,05,57,16.20
2013,06,29,05,58,16.20
2013,06,29,05,59,16.20
2013,06,29,06,00,16.20
2013,06,29,06,01,16.20
2013,06,29,06,02,16.20
2013,06,29,06,03,16.20
2013,06,29,06,04,16.20
2013,06,29,06,05,16.20
2013,06,29,06,06,16.20
2013,06,29,06,07,16.10
2013,06,29,06,08,16.10
2013,06,29,06,09,16.10
2013,06,29,06,10,16.10
2013,06,29,06,11,16.10
2013,06,29,06,12,16.10
2013,06,29,06,13,16.10
2013,06,29,06,14,16.10
2013,06,29,06,15,16.10
2013,06,29,06,16,16.10
2013,06,29,06,17,16.10
2013,06,29,06,18,16.10
2013,06,29,06,19,16.10
2013,06,29,06,20,16.10
2013,06,29,06,21,16.10
2013,06,29,06,22,16.10
2013,06,29,06,23,16.10
2013,06,29,06,24,16.10
2013,06,29,06,25,16.10
2013,06,29,06,26,16.10
2013,06,29,06,27,16.10
2013,06,29,06,28,16.10
2013,06,29,06,29,16.10
2013,06,29,06,30,16.10
2013,06,29,06,31,16.20
2013,06,29,06,32,16.20
2013,06,29,06,33,16.20
2013,06,29,06,34,16.20
2013,06,29,06,35,16.30
2013,06,29,06,36,16.30
2013,06,29,06,37,16.40
2013,06,29,06,38,16.40
2013,06,29,06,39,16.50
2013,06,29,06,40,16.50
2013,06,29,06,41,16.50
2013,06,29,06,42,16.60
2013,06,29,06,43,16.60
2013,06,29,06,44,16.70
2013,06,29,06,45,16.70
2013,06,29,06,46,16.80
2013,06,29,06,47,16.80
2013,06,29,06,48,16.80
2013,06,29,06,49,16.90
2013,06,29,06,50,16.90
2013,06,29,06,51,17.00
2013,06,29,06,52,17.00
2013,06,29,06,53,17.10
2013,06,29,06,54,17.10
2013,06,29,06,55,17.20
2013,06,29,06,56,17.20
2013,06,29,06,57,17.20
2013,06,29,06,58,17.30
2013,06,29,06,59,17.30
2013,06,29,07,00,17.40
2013,06,29,07,01,17.40
2013,06,29,07,02,17.50
2013,06,29,07,03,17.50
2013,06,29,07,04,17.60
2013,06,29,07,05,17.60
2013,06,29,07,06,17.70
2013,06,29,07,07,17.70
2013,06,29,07,08,17.80
2013,06,29,07,09,17.90
2013,06,29,07,10,18.00
2013,06,29,07,11,18.00
2013,06,29,07,12,18.10
2013,06,29,07,13,18.20
2013,06,29,07,14,18.30
2013,06,29,07,15,18.30
2013,06,29,07,16,18.40
2013,06,29,07,17,18.40
2013,06,29,07,18,18.50
2013,06,29,07,19,18.60
2013,06,29,07,20,18.60
2013,06,29,07,21,18.70
2013,06,29,07,22,18.70
2013,06,29,07,23,18.80
2013,06,29,07,24,18.80
2013,06,29,07,25,18.80
2013,06,29,07,26,18.90
2013,06,29,07,27,18.90
2013,06,29,07,28,18.90
2013,06,29,07,29,18.90
2013,06,29,07,30,19.00
2013,06,29,07,31,19.00
2013,06,29,07,32,19.10
2013,06,29,07,33,19.10
2013,06,29,07,34,19.20
2013,06,29,07,35,19.20
2013,06,29,07,36,19.20
2013,06,29,07,37,19.30
2013,06,29,07,38,19.30
2013,06,29,07,39,19.40
2013,06,29,07,40,19.40
2013,06,29,07,41,19.40
2013,06,29,07,42,19.40
2013,06,29,07,43,19.40
2013,06,29,07,44,19.50
2013,06,29,07,45,19.50
2013,06,29,07,46,19.50
2013,06,29,07,47,19.60
2013,06,29,07,48,19.60
2013,06,29,07,49,19.60
2013,06,29,07,50,19.70
2013,06,29,07,51,19.70
2013,06,29,07,52,19.80
2013,06,29,07,53,19.80
2013,06,29,07,54,19.90
2013,06,29,07,55,19.90
2013,06,29,07,56,19.90
2013,06,29,07,57,20.00
2013,06,29,07,58,20.00
2013,06,29,07,59,20.00
2013,06,29,08,00,20.00
2013,06,29,08,01,20.00
2013,06,29,08,02,20.00
2013,06,29,08,03,20.00
2013,06,29,08,04,20.00
2013,06,29,08,05,20.00
2013,06,29,08,06,20.00
2013,06,29,08,07,20.00
2013,06,29,08,08,19.90
2013,06,29,08,09,19.90
2013,06,29,08,10,19.90
2013,06,29,08,11,19.90
2013,06,29,08,12,19.80
2013,06,29,08,13,19.80
2013,06,29,08,14,19.80
2013,06,29,08,15,19.80
2013,06,29,08,16,19.70
2013,06,29,08,17,19.70
2013,06,29,08,18,19.70
2013,06,29,08,19,19.70
2013,06,29,08,20,19.70
2013,06,29,08,21,19.70
2013,06,29,08,22,19.70
2013,06,29,08,23,19.70
2013,06,29,08,24,19.80
2013,06,29,08,25,19.80
2013,06,29,08,26,19.80
2013,06,29,08,27,19.80
2013,06,29,08,28,19.80
2013,06,29,08,29,19.80
2013,06,29,08,30,19.80
2013,06,29,08,31,19.80
2013,06,29,08,32,19.80
2013,06,29,08,33,19.70
2013,06,29,08,34,19.70
2013,06,29,08,35,19.70
2013,06,29,08,36,19.70
2013,06,29,08,37,19.70
2013,06,29,08,38,19.70
2013,06,29,08,39,19.70
2013,06,29,08,40,19.70
2013,06,29,08,41,19.70
2013,06,29,08,42,19.70
2013,06,29,08,43,19.60
2013,06,29,08,44,19.60
2013,06,29,08,45,19.60
2013,06,29,08,46,19.60
2013,06,29,08,47,19.60
2013,06,29,08,48,19.60
2013,06,29,08,49,19.60
2013,06,29,08,50,19.60
2013,06,29,08,51,19.70
2013,06,29,08,52,19.70
2013,06,29,08,53,19.80
2013,06,29,08,54,19.80
2013,06,29,08,55,19.90
2013,06,29,08,56,19.90
2013,06,29,08,57,20.00
2013,06,29,08,58,20.10
2013,06,29,08,59,20.10
2013,06,29,09,00,20.20
2013,06,29,09,01,20.20
2013,06,29,09,02,20.30
2013,06,29,09,03,20.30
2013,06,29,09,04,20.40
2013,06,29,09,05,20.40
2013,06,29,09,06,20.50
2013,06,29,09,07,20.50
2013,06,29,09,08,20.50
2013,06,29,09,09,20.60
2013,06,29,09,10,20.60
2013,06,29,09,11,20.70
2013,06,29,09,12,20.80
2013,06,29,09,13,20.80
2013,06,29,09,14,20.90
2013,06,29,09,15,21.00
2013,06,29,09,16,21.10
2013,06,29,09,17,21.10
2013,06,29,09,18,21.20
2013,06,29,09,19,21.20
2013,06,29,09,20,21.20
2013,06,29,09,21,21.30
2013,06,29,09,22,21.30
2013,06,29,09,23,21.30
2013,06,29,09,24,21.40
2013,06,29,09,25,21.40
2013,06,29,09,26,21.50
2013,06,29,09,27,21.60
2013,06,29,09,28,21.60
2013,06,29,09,29,21.70
2013,06,29,09,30,21.70
2013,06,29,09,31,21.80
2013,06,29,09,32,21.90
2013,06,29,09,33,21.90
2013,06,29,09,34,22.00
2013,06,29,09,35,22.00
2013,06,29,09,36,22.10
2013,06,29,09,37,22.10
2013,06,29,09,38,22.20
2013,06,29,09,39,22.20
2013,06,29,09,40,22.30
2013,06,29,09,41,22.30
2013,06,29,09,42,22.30
2013,06,29,09,43,22.30
2013,06,29,09,44,22.30
2013,06,29,09,45,22.30
2013,06,29,09,46,22.30
2013,06,29,09,47,22.30
2013,06,29,09,48,22.30
2013,06,29,09,49,22.30
2013,06,29,09,50,22.30
2013,06,29,09,51,22.30
2013,06,29,09,52,22.20
2013,06,29,09,53,22.20
2013,06,29,09,54,22.20
2013,06,29,09,55,22.20
2013,06,29,09,56,22.20
2013,06,29,09,57,22.20
2013,06,29,09,58,22.20
2013,06,29,09,59,22.20
2013,06,29,10,00,22.30
2013,06,29,10,01,22.30
2013,06,29,10,02,22.30
2013,06,29,10,03,22.30
2013,06,29,10,04,22.30
2013,06,29,10,05,22.30
2013,06,29,10,06,22.40
2013,06,29,10,07,22.40
2013,06,29,10,08,22.40
2013,06,29,10,09,22.50
2013,06,29,10,10,22.50
2013,06,29,10,11,22.60
2013,06,29,10,12,22.60
2013,06,29,10,13,22.60
2013,06,29,10,14,22.60
2013,06,29,10,15,22.60
2013,06,29,10,16,22.60
2013,06,29,10,17,22.60
2013,06,29,10,18,22.60
2013,06,29,10,19,22.60
2013,06,29,10,20,22.60
2013,06,29,10,21,22.70
2013,06,29,10,22,22.70
2013,06,29,10,23,22.70
2013,06,29,10,24,22.70
2013,06,29,10,25,22.70
2013,06,29,10,26,22.80
2013,06,29,10,27,22.80
2013,06,29,10,28,22.80
2013,06,29,10,29,22.70
2013,06,29,10,30,22.70
2013,06,29,10,31,22.70
2013,06,29,10,32,22.70
2013,06,29,10,33,22.70
2013,06,29,10,34,22.70
2013,06,29,10,35,22.70
2013,06,29,10,36,22.70
2013,06,29,10,37,22.70
2013,06,29,10,38,22.70
2013,06,29,10,39,22.70
2013,06,29,10,40,22.70
2013,06,29,10,41,22.80
2013,06,29,10,42,22.80
2013,06,29,10,43,22.90
2013,06,29,10,44,23.00
2013,06,29,10,45,23.00
2013,06,29,10,46,23.00
2013,06,29,10,47,23.00
2013,06,29,10,48,23.10
2013,06,29,10,49,23.10
2013,06,29,10,50,23.10
2013,06,29,10,51,23.20
2013,06,29,10,52,23.20
2013,06,29,10,53,23.20
2013,06,29,10,54,23.20
2013,06,29,10,55,23.20
2013,06,29,10,56,23.20
2013,06,29,10,57,23.20
2013,06,29,10,58,23.20
2013,06,29,10,59,23.20
2013,06,29,11,00,23.20
2013,06,29,11,01,23.20
2013,06,29,11,02,23.20
2013,06,29,11,03,23.20
2013,06,29,11,04,23.30
2013,06,29,11,05,23.30
2013,06,29,11,06,23.30
2013,06,29,11,07,23.40
2013,06,29,11,08,23.40
2013,06,29,11,09,23.40
2013,06,29,11,10,23.40
2013,06,29,11,11,23.50
2013,06,29,11,12,23.50
2013,06,29,11,13,23.50
2013,06,29,11,14,23.40
2013,06,29,11,15,23.40
2013,06,29,11,16,23.40
2013,06,29,11,17,23.40
2013,06,29,11,18,23.30
2013,06,29,11,19,23.30
2013,06,29,11,20,23.30
2013,06,29,11,21,23.30
2013,06,29,11,22,23.30
2013,06,29,11,23,23.30
2013,06,29,11,24,23.20
2013,06,29,11,25,23.20
2013,06,29,11,26,23.30
2013,06,29,11,27,23.30
2013,06,29,11,28,23.30
2013,06,29,11,29,23.30
2013,06,29,11,30,23.30
2013,06,29,11,31,23.30
2013,06,29,11,32,23.30
2013,06,29,11,33,23.30
2013,06,29,11,34,23.30
2013,06,29,11,35,23.30
2013,06,29,11,36,23.30
2013,06,29,11,37,23.30
2013,06,29,11,38,23.40
2013,06,29,11,39,23.40
2013,06,29,11,40,23.40
2013,06,29,11,41,23.40
2013,06,29,11,42,23.50
2013,06,29,11,43,23.50
2013,06,29,11,44,23.50
2013,06,29,11,45,23.50
2013,06,29,11,46,23.60
2013,06,29,11,47,23.60
2013,06,29,11,48,23.60
2013,06,29,11,49,23.60
2013,06,29,11,50,23.50
2013,06,29,11,51,23.60
2013,06,29,11,52,23.60
2013,06,29,11,53,23.60
2013,06,29,11,54,23.60
2013,06,29,11,55,23.50
2013,06,29,11,56,23.50
2013,06,29,11,57,23.50
2013,06,29,11,58,23.50
2013,06,29,11,59,23.50
2013,06,29,12,00,23.50
2013,06,29,12,01,23.50
2013,06,29,12,02,23.50
2013,06,29,12,03,23.40
2013,06,29,12,04,23.40
2013,06,29,12,05,23.40
2013,06,29,12,06,23.50
2013,06,29,12,07,23.50
2013,06,29,12,08,23.40
2013,06,29,12,09,23.40
2013,06,29,12,10,23.40
2013,06,29,12,11,23.30
2013,06,29,12,12,23.30
2013,06,29,12,13,23.30
2013,06,29,12,14,23.30
2013,06,29,12,15,23.30
2013,06,29,12,16,23.30
2013,06,29,12,17,23.30
2013,06,29,12,18,23.40
2013,06,29,12,19,23.40
2013,06,29,12,20,23.40
2013,06,29,12,21,23.40
2013,06,29,12,22,23.50
2013,06,29,12,23,23.50
2013,06,29,12,24,23.60
2013,06,29,12,25,23.70
2013,06,29,12,26,23.80
2013,06,29,12,27,23.80
2013,06,29,12,28,23.90
2013,06,29,12,29,23.90
2013,06,29,12,30,23.90
2013,06,29,12,31,23.80
2013,06,29,12,32,23.80
2013,06,29,12,33,23.80
2013,06,29,12,34,23.70
2013,06,29,12,35,23.60
2013,06,29,12,36,23.60
2013,06,29,12,37,23.60
2013,06,29,12,38,23.60
2013,06,29,12,39,23.50
2013,06,29,12,40,23.50
2013,06,29,12,41,23.50
2013,06,29,12,42,23.50
2013,06,29,12,43,23.60
2013,06,29,12,44,23.60
2013,06,29,12,45,23.70
2013,06,29,12,46,23.70
2013,06,29,12,47,23.80
2013,06,29,12,48,23.80
2013,06,29,12,49,23.70
2013,06,29,12,50,23.70
2013,06,29,12,51,23.70
2013,06,29,12,52,23.70
2013,06,29,12,53,23.70
2013,06,29,12,54,23.60
2013,06,29,12,55,23.60
2013,06,29,12,56,23.60
2013,06,29,12,57,23.60
2013,06,29,12,58,23.60
2013,06,29,12,59,23.60
2013,06,29,13,00,23.50
2013,06,29,13,01,23.50
2013,06,29,13,02,23.50
2013,06,29,13,03,23.40
2013,06,29,13,04,23.40
2013,06,29,13,05,23.40
2013,06,29,13,06,23.40
2013,06,29,13,07,23.40
2013,06,29,13,08,23.40
2013,06,29,13,09,23.30
2013,06,29,13,10,23.30
2013,06,29,13,11,23.30
2013,06,29,13,12,23.30
2013,06,29,13,13,23.20
2013,06,29,13,14,23.20
2013,06,29,13,15,23.20
2013,06,29,13,16,23.20
2013,06,29,13,17,23.20
2013,06,29,13,18,23.20
2013,06,29,13,19,23.20
2013,06,29,13,20,23.10
2013,06,29,13,21,23.20
2013,06,29,13,22,23.10
2013,06,29,13,23,23.10
2013,06,29,13,24,23.10
2013,06,29,13,25,23.10
2013,06,29,13,26,23.10
2013,06,29,13,27,23.10
2013,06,29,13,28,23.10
2013,06,29,13,29,23.10
2013,06,29,13,30,23.20
2013,06,29,13,31,23.20
2013,06,29,13,32,23.20
2013,06,29,13,33,23.30
2013,06,29,13,34,23.30
2013,06,29,13,35,23.40
2013,06,29,13,36,23.40
2013,06,29,13,37,23.50
2013,06,29,13,38,23.50
2013,06,29,13,39,23.60
2013,06,29,13,40,23.60
2013,06,29,13,41,23.60
2013,06,29,13,42,23.70
2013,06,29,13,43,23.70
2013,06,29,13,44,23.70
2013,06,29,13,45,23.70
2013,06,29,13,46,23.80
2013,06,29,13,47,23.80
2013,06,29,13,48,23.80
2013,06,29,13,49,23.80
2013,06,29,13,50,23.80
2013,06,29,13,51,23.80
2013,06,29,13,52,23.80
2013,06,29,13,53,23.80
2013,06,29,13,54,23.80
2013,06,29,13,55,23.90
2013,06,29,13,56,23.90
2013,06,29,13,57,23.90
2013,06,29,13,58,23.90
2013,06,29,13,59,23.80
2013,06,29,14,00,23.80
2013,06,29,14,01,23.90
2013,06,29,14,02,23.90
2013,06,29,14,03,23.90
2013,06,29,14,04,23.90
2013,06,29,14,05,23.90
2013,06,29,14,06,23.90
2013,06,29,14,07,23.80
2013,06,29,14,08,23.80
2013,06,29,14,09,23.80
2013,06,29,14,10,23.90
2013,06,29,14,11,23.90
2013,06,29,14,12,23.90
2013,06,29,14,13,24.00
2013,06,29,14,14,24.00
2013,06,29,14,15,24.10
2013,06,29,14,16,24.20
2013,06,29,14,17,24.20
2013,06,29,14,18,24.20
2013,06,29,14,19,24.30
2013,06,29,14,20,24.30
2013,06,29,14,21,24.30
2013,06,29,14,22,24.30
2013,06,29,14,23,24.30
2013,06,29,14,24,24.30
2013,06,29,14,25,24.30
2013,06,29,14,26,24.40
2013,06,29,14,27,24.40
2013,06,29,14,28,24.40
2013,06,29,14,29,24.40
2013,06,29,14,30,24.40
2013,06,29,14,31,24.40
2013,06,29,14,32,24.40
2013,06,29,14,33,24.40
2013,06,29,14,34,24.50
2013,06,29,14,35,24.50
2013,06,29,14,36,24.40
2013,06,29,14,37,24.40
2013,06,29,14,38,24.30
2013,06,29,14,39,24.30
2013,06,29,14,40,24.20
2013,06,29,14,41,24.20
2013,06,29,14,42,24.20
2013,06,29,14,43,24.20
2013,06,29,14,44,24.20
2013,06,29,14,45,24.30
2013,06,29,14,46,24.30
2013,06,29,14,47,24.30
2013,06,29,14,48,24.30
2013,06,29,14,49,24.40
2013,06,29,14,50,24.40
2013,06,29,14,51,24.50
2013,06,29,14,52,24.50
2013,06,29,14,53,24.50
2013,06,29,14,54,24.60
2013,06,29,14,55,24.60
2013,06,29,14,56,24.60
2013,06,29,14,57,24.50
2013,06,29,14,58,24.40
2013,06,29,14,59,24.40
2013,06,29,15,00,24.30
2013,06,29,15,01,24.30
2013,06,29,15,02,24.30
2013,06,29,15,03,24.30
2013,06,29,15,04,24.30
2013,06,29,15,05,24.40
2013,06,29,15,06,24.40
2013,06,29,15,07,24.40
2013,06,29,15,08,24.40
2013,06,29,15,09,24.50
2013,06,29,15,10,24.50
2013,06,29,15,11,24.50
2013,06,29,15,12,24.50
2013,06,29,15,13,24.50
2013,06,29,15,14,24.50
2013,06,29,15,15,24.50
2013,06,29,15,16,24.50
2013,06,29,15,17,24.50
2013,06,29,15,18,24.40
2013,06,29,15,19,24.40
2013,06,29,15,20,24.40
2013,06,29,15,21,24.40
2013,06,29,15,22,24.40
2013,06,29,15,23,24.30
2013,06,29,15,24,24.30
2013,06,29,15,25,24.30
2013,06,29,15,26,24.30
2013,06,29,15,27,24.30
2013,06,29,15,28,24.30
2013,06,29,15,29,24.30
2013,06,29,15,30,24.30
2013,06,29,15,31,24.30
2013,06,29,15,32,24.30
2013,06,29,15,33,24.40
2013,06,29,15,34,24.40
2013,06,29,15,35,24.40
2013,06,29,15,36,24.50
2013,06,29,15,37,24.50
2013,06,29,15,38,24.60
2013,06,29,15,39,24.60
2013,06,29,15,40,24.70
2013,06,29,15,41,24.70
2013,06,29,15,42,24.70
2013,06,29,15,43,24.80
2013,06,29,15,44,24.80
2013,06,29,15,45,24.90
2013,06,29,15,46,24.90
2013,06,29,15,47,24.90
2013,06,29,15,48,24.90
2013,06,29,15,49,24.90
2013,06,29,15,50,24.90
2013,06,29,15,51,24.90
2013,06,29,15,52,24.90
2013,06,29,15,53,24.90
2013,06,29,15,54,24.90
2013,06,29,15,55,24.90
2013,06,29,15,56,24.80
2013,06,29,15,57,24.80
2013,06,29,15,58,24.80
2013,06,29,15,59,24.70
2013,06,29,16,00,24.70
2013,06,29,16,01,24.70
2013,06,29,16,02,24.70
2013,06,29,16,03,24.70
2013,06,29,16,04,24.70
2013,06,29,16,05,24.60
2013,06,29,16,06,24.60
2013,06,29,16,07,24.60
2013,06,29,16,08,24.60
2013,06,29,16,09,24.70
2013,06,29,16,10,24.70
2013,06,29,16,11,24.70
2013,06,29,16,12,24.80
2013,06,29,16,13,24.80
2013,06,29,16,14,24.80
2013,06,29,16,15,24.80
2013,06,29,16,16,24.80
2013,06,29,16,17,24.80
2013,06,29,16,18,24.80
2013,06,29,16,19,24.80
2013,06,29,16,20,24.80
2013,06,29,16,21,24.80
2013,06,29,16,22,24.90
2013,06,29,16,23,24.90
2013,06,29,16,24,24.90
2013,06,29,16,25,24.90
2013,06,29,16,26,24.90
2013,06,29,16,27,24.90
2013,06,29,16,28,24.90
2013,06,29,16,29,24.90
2013,06,29,16,30,24.90
2013,06,29,16,31,24.90
2013,06,29,16,32,24.90
2013,06,29,16,33,24.90
2013,06,29,16,34,24.90
2013,06,29,16,35,24.90
2013,06,29,16,36,25.00
2013,06,29,16,37,25.00
2013,06,29,16,38,25.00
2013,06,29,16,39,25.00
2013,06,29,16,40,25.10
2013,06,29,16,41,25.10
2013,06,29,16,42,25.20
2013,06,29,16,43,25.20
2013,06,29,16,44,25.20
2013,06,29,16,45,25.20
2013,06,29,16,46,25.20
2013,06,29,16,47,25.20
2013,06,29,16,48,25.20
2013,06,29,16,49,25.20
2013,06,29,16,50,25.30
2013,06,29,16,51,25.30
2013,06,29,16,52,25.30
2013,06,29,16,53,25.30
2013,06,29,16,54,25.30
2013,06,29,16,55,25.40
2013,06,29,16,56,25.40
2013,06,29,16,57,25.40
2013,06,29,16,58,25.40
2013,06,29,16,59,25.40
2013,06,29,17,00,25.40
2013,06,29,17,01,25.40
2013,06,29,17,02,25.40
2013,06,29,17,03,25.40
2013,06,29,17,04,25.40
2013,06,29,17,05,25.40
2013,06,29,17,06,25.40
2013,06,29,17,07,25.40
2013,06,29,17,08,25.40
2013,06,29,17,09,25.40
2013,06,29,17,10,25.50
2013,06,29,17,11,25.50
2013,06,29,17,12,25.50
2013,06,29,17,13,25.50
2013,06,29,17,14,25.50
2013,06,29,17,15,25.50
2013,06,29,17,16,25.50
2013,06,29,17,17,25.60
2013,06,29,17,18,25.60
2013,06,29,17,19,25.60